sat.trackr.live / text

‹ back to catalog

UNKNOWN

NORAD 84292

UNKNOWN UNKNOWN UNKNOWN

§ Identity

Operator
Country
Launch date
Launch site
Launch vehicle
Mass (kg)
RCS (m²)

External: N2YO · Heavens-Above

§ Orbital elements

Epoch: 2026-05-21T10:26:32.093088Z

Period
231.27 min
Inclination
23.8686°
Eccentricity
0.4545343
Mean motion
6.22645147 rev/d
Perigee alt
429.7 km
Apogee alt
11,775.6 km
Semi-major
12,480.8 km
B*
7.7331e-4
RAAN
299.1505°
Arg perigee
264.7789°
Mean anomaly
43.6444°
Rev number
23,801

§ Raw data

UNKNOWN1 84292U          26141.43509367  .00001182  00000+0  77331-3 0  99912 84292  23.8686 299.1505 4545343 264.7789  43.6444  6.22645147238018

JSON: /api/v1/satellites/84292 · /tle

For live sub-satellite position, see the globe view (requires WebGL).

§ Visibility from observer

Set your observer location to see the next 7 days of passes ≥ 10°. The values pass through the URL so the page stays shareable.

No JS? Fill the form by hand. The geolocation button needs JavaScript.